Dewpoint
51 51 51 51 51 52 52 52 52 52 51 51 51 51 51 50 49 48 51 54 54 53 52 52 51 49 40 21 20 27 38 33 27 41 44 44 44 41 38 39 39 39 40 39 39 37 36
50 50 50 51 51 51 52 52 52 51 51 51 51 51 50 50 48 48 49 53 54 52 52 52 50 49 24 15 23 25 21 24 23 24 36 45 45 44 41 40 37 38 38 38 36 33 34
50 49 49 50 51 51 51 51 51 51 51 50 50 50 50 50 48 48 49 50 52 53 52 50 51 33 13 16 24 19 17 21 22 23 33 38 39 42 42 38 40 38 36 35 32 31 33
49 49 49 50 50 51 51 51 51 51 50 50 50 49 49 49 48 48 50 48 49 50 51 51 51 24 15 25 23 18 19 20 22 21 29 36 41 41 36 39 36 33 33 27 23 29 27
49 49 49 49 50 50 50 50 50 50 50 49 49 49 48 48 48 46 49 48 50 49 50 45 23 14 14 27 14 19 19 19 21 21 21 32 37 23 22 26 24 20 19 17 19 26 27
48 48 48 49 50 50 50 50 50 50 49 49 48 48 47 47 47 44 48 47 41 33 25 18 17 10 13 16 19 18 17 19 18 20 17 20 23 17 19 17 10 15 17 20 16 23 19
47 48 48 48 49 50 50 50 49 49 49 48 48 48 47 47 43 42 36 22 25 18 18 10 10 11 15 15 20 17 18 17 18 15 9 11 11 10 16 20 22 19 19 16 12 14 19
47 48 48 48 48 49 49 49 49 48 48 47 47 47 46 45 40 41 36 30 32 20 12 17 14 12 17 14 12 16 20 9 14 8 11 7 6 8 18 15 11 9 11 6 9 10 11
47 47 48 48 48 48 48 48 48 48 47 47 47 47 46 46 38 30 29 30 36 38 18 16 16 14 15 14 13 15 19 15 9 9 5 2 6 17 16 5 5 3 8 6 9 12 11
47 47 47 47 47 48 48 48 47 47 47 47 47 46 43 49 30 26 25 30 38 38 10 10 13 12 13 18 9 19 21 10 9 7 7 6 9 13 7 3 6 4 5 9 10 9 3
48 48 47 47 47 47 47 47 47 46 46 46 46 46 41 34 25 24 27 33 40 32 1 15 11 18 15 9 11 16 22 15 6 5 -5 -2 6 6 4 -0 6 8 10 11 9 8 4
48 48 47 47 46 46 46 46 46 46 45 45 45 45 36 27 27 28 32 41 36 13 2 10 14 12 9 10 12 17 18 18 17 8 9 8 10 7 6 3 6 10 10 9 8 7 -5
48 48 48 46 46 45 45 45 45 45 44 44 45 44 30 25 21 28 39 35 3 1 11 9 8 13 10 9 9 13 14 12 13 5 7 8 5 9 6 6 9 11 8 2 -2 -2 -4
48 49 48 47 45 44 44 44 44 44 43 44 44 41 29 23 28 32 30 5 -6 10 10 15 12 9 10 11 9 15 14 14 13 11 9 7 -1 6 6 7 9 9 10 4 -6 -4 0
49 49 48 46 45 44 43 43 43 43 43 44 39 27 20 22 28 30 13 -0 4 11 13 11 7 4 7 12 7 10 15 16 12 12 -0 2 3 7 8 11 12 12 8 12 8 5 2
49 49 47 46 44 43 42 43 43 42 43 43 28 24 18 26 30 23 15 12 13 16 15 11 1 8 8 8 0 8 13 12 11 12 13 4 -2 6 9 11 10 10 8 2 4 -5 -6
49 49 47 46 44 42 42 42 42 41 43 42 26 19 18 26 23 18 9 13 15 16 15 12 11 12 11 5 5 9 12 12 11 7 14 14 6 4 10 9 6 4 -2 -2 -4 -4 -3
49 49 48 45 43 42 41 42 41 40 41 32 20 9 19 22 11 17 14 15 17 15 17 18 13 13 10 6 5 12 10 10 8 9 7 12 8 3 6 0 1 1 -6 -12 -7 -8 -3
50 49 47 45 43 41 41 41 40 39 41 25 15 16 25 14 4 14 15 13 13 14 14 15 13 13 8 6 -3 8 11 7 7 9 8 8 2 -6 -3 -1 6 -0 -1 -4 -10 -9 -14
50 49 47 45 44 42 41 40 39 37 40 30 23 13 15 20 16 15 14 12 11 15 14 14 13 9 7 7 9 3 7 11 7 8 13 11 -8 -6 -9 -5 1 -4 -2 -4 -4 -15 -17
51 49 47 46 44 42 41 39 37 37 38 30 24 22 18 13 13 15 15 14 11 10 14 14 11 11 2 -2 5 5 7 9 4 5 -2 -4 -14 -1 -3 -7 -4 -5 -4 -6 -7 -12 -15
50 49 48 46 44 42 40 39 36 36 38 27 25 23 22 18 17 14 13 10 11 8 13 12 10 12 8 -1 -1 -0 2 4 3 -0 -4 -9 -24 -8 -11 -3 -3 -8 -6 -9 -8 -9 -15
51 50 48 46 45 43 38 38 36 37 34 29 29 24 21 18 14 12 11 12 11 13 13 15 10 10 8 10 10 10 6 4 2 -4 -16 -21 -16 -16 -19 -3 -9 -17 -11 -6 -11 -15 -19
51 50 47 46 46 43 39 37 37 39 36 30 29 24 24 17 16 12 12 10 12 10 7 11 9 5 12 11 11 8 3 0 -7 -13 -8 -20 -21 -20 -19 -19 -29 -12 -16 -13 -12 -13 -16
51 49 46 47 46 42 40 37 37 36 39 31 31 25 25 17 17 11 10 11 11 10 10 12 11 12 14 11 1 -3 1 -1 -0 -4 -15 -18 -19 -22 -16 -22 -17 -14 -7 -11 -19 -19 -17
51 48 47 47 45 41 41 37 37 36 35 28 26 28 26 19 16 15 11 11 9 4 6 10 11 16 16 11 1 -8 -6 -7 -13 -11 -8 -13 -22 -17 -28 -26 -30 -13 -11 -23 -23 -20 -13
49 47 47 47 44 42 40 37 36 35 33 27 25 25 21 17 17 15 13 10 12 7 6 10 10 11 13 3 -2 -6 -7 -10 -18 -16 -11 -20 -26 -22 -21 -26 -19 -14 -10 -22 -27 -16 -10
48 47 47 46 43 41 40 37 37 34 30 23 16 19 17 16 13 13 14 13 11 12 8 8 6 7 7 4 2 -0 -7 -6 -15 -13 -15 -18 -21 -21 -28 -29 -25 -9 -11 -16 -10 -18 -14
48 47 47 43 41 40 42 38 35 33 27 20 12 11 13 16 13 13 12 12 11 14 10 4 4 6 11 5 3 -2 -3 -9 -11 -15 -12 -18 -14 -14 -14 -13 -18 -8 -13 -10 -19 -13 -13
Lifted_Index
12 12 13 13 12 12 12 12 12 12 12 12 12 12 12 12 12 12 11 10 10 10 11 11 12 13 13 13 14 17 18 17 15 13 11 9 9 8 8 8 8 9 8 9 9 9 9
12 12 13 13 12 12 12 12 12 12 12 12 12 12 12 12 12 13 12 10 10 10 11 11 12 13 13 14 16 18 18 17 15 14 12 10 9 9 9 9 9 9 9 9 10 10 10
12 12 12 12 12 12 12 12 12 12 12 12 12 12 12 12 13 13 12 11 10 10 10 11 12 14 14 16 18 19 18 18 16 14 13 11 10 10 10 10 10 10 10 10 11 11 11
12 12 12 12 12 12 12 12 12 12 12 12 12 12 12 13 13 13 13 12 11 11 11 12 13 14 16 17 19 19 19 18 17 15 13 12 11 11 11 11 11 11 10 10 12 13 13
12 12 12 12 12 12 12 12 12 12 12 13 13 13 13 13 14 14 14 13 13 13 14 14 15 15 16 18 19 19 19 18 17 15 13 12 12 12 12 11 10 9 9 10 12 15 16
12 12 12 12 12 12 12 12 13 13 13 13 13 13 13 14 14 15 14 14 14 15 15 16 16 16 16 18 19 19 19 18 17 15 13 13 12 12 12 11 9 8 9 10 13 16 18
12 12 12 12 12 12 12 13 13 13 13 13 13 13 13 14 15 16 15 15 15 15 15 16 16 17 18 19 19 19 19 17 16 14 13 13 12 12 13 14 12 11 10 11 15 17 18
13 12 12 12 12 12 13 13 13 13 13 13 14 14 14 14 16 16 16 15 15 15 14 16 17 18 19 19 18 18 19 17 14 13 12 12 12 14 16 16 15 14 13 13 16 18 18
13 13 13 13 13 13 13 13 14 14 14 14 14 14 14 14 16 17 16 15 16 14 12 14 16 18 19 18 17 18 19 17 14 12 12 12 14 17 18 17 15 15 14 15 15 16 15
13 13 13 13 13 13 14 14 14 14 14 14 14 14 15 15 16 16 15 15 15 13 10 10 14 17 19 18 18 19 20 18 15 13 13 14 16 17 17 16 16 16 16 16 15 13 11
13 13 13 13 13 14 14 14 15 15 15 15 14 15 16 17 16 15 15 15 14 10 6 8 13 17 18 17 18 19 20 19 16 15 15 15 17 17 17 17 17 17 17 16 13 11 9
13 13 13 13 14 14 14 15 15 15 15 15 15 15 17 17 16 16 15 14 11 7 5 8 12 14 15 15 16 17 18 17 15 14 14 15 16 18 17 17 17 16 14 12 10 7 6
12 13 13 14 14 14 15 15 15 16 16 15 15 16 17 17 17 16 15 12 7 5 6 8 10 12 12 13 14 15 14 14 13 12 11 12 14 16 17 16 14 13 11 7 4 3 3
12 12 13 14 14 15 15 16 16 16 16 16 16 16 17 18 17 16 13 9 5 5 7 9 10 10 10 11 13 13 12 12 13 12 10 9 10 14 16 14 13 11 8 5 2 2 2
10 11 13 14 14 15 15 16 16 16 16 16 16 17 17 17 17 15 11 7 5 7 9 9 9 9 9 10 12 12 12 12 14 14 12 10 10 12 14 13 11 10 7 5 3 2 2
9 11 13 13 13 14 15 16 16 17 16 16 16 16 16 17 17 14 10 7 7 10 11 10 9 8 8 9 10 11 12 13 15 16 15 12 10 11 12 11 9 8 7 5 4 2 1
9 11 13 12 11 12 15 16 17 17 16 16 14 13 15 17 15 12 9 8 10 12 13 11 10 9 9 10 10 10 11 13 15 16 15 13 10 9 9 9 8 7 6 5 4 2 1
8 11 12 11 10 12 15 17 17 17 17 16 13 12 15 16 12 10 9 10 11 12 13 13 12 11 11 11 10 10 12 14 15 15 14 12 9 7 7 8 8 7 6 6 4 3 3
8 10 12 10 10 12 15 17 17 17 17 15 12 11 14 14 11 9 10 10 11 12 13 13 13 13 13 12 11 11 12 14 15 14 13 11 8 5 5 7 8 7 7 7 6 4 3
7 9 11 11 10 13 16 17 17 17 17 15 12 10 12 12 11 10 10 10 11 12 13 13 13 13 13 12 11 11 12 14 15 14 13 11 8 6 5 6 7 6 6 7 6 5 4
5 7 10 11 12 14 16 17 17 17 17 15 12 9 10 11 11 11 11 10 11 12 13 13 13 13 12 11 11 11 11 12 13 13 12 10 8 6 6 6 7 6 6 6 6 5 5
4 6 10 11 12 13 15 17 17 17 17 15 13 12 12 12 11 11 11 11 11 12 13 13 13 13 12 12 11 11 12 12 11 11 10 9 7 6 6 6 6 6 6 6 6 6 6
4 6 9 11 11 12 15 16 17 17 17 16 15 15 14 12 11 11 11 11 12 13 13 14 14 13 13 14 14 13 13 12 11 10 9 8 7 5 5 5 5 5 6 6 7 7 7
5 6 9 10 10 12 14 16 16 17 17 17 17 17 14 12 11 12 12 12 13 13 14 14 15 15 15 15 14 13 12 11 10 10 9 8 7 5 4 4 4 5 6 7 7 7 7
5 6 9 10 11 12 14 15 16 17 18 18 18 18 15 13 12 13 13 13 13 14 14 15 16 17 17 15 12 10 8 8 8 9 9 9 7 5 4 3 3 4 6 7 6 6 7
6 8 10 11 12 13 15 16 17 18 18 18 19 18 17 15 14 14 14 14 14 14 14 15 17 18 16 13 9 6 5 5 5 6 7 7 6 5 3 2 3 4 6 7 6 5 6
8 9 11 12 12 14 15 16 18 19 19 19 19 19 18 16 15 15 15 14 14 14 14 14 15 15 14 10 7 5 5 4 4 4 4 5 4 4 3 2 3 5 6 7 6 5 6
10 11 12 12 13 15 16 17 18 19 20 20 19 19 19 17 17 17 17 17 16 16 14 14 13 13 11 9 6 5 5 4 4 3 3 3 3 3 3 3 3 5 6 6 6 6 6
10 11 12 13 14 15 16 17 18 20 21 20 20 20 20 18 18 19 20 19 18 17 15 14 13 12 10 8 7 5 5 4 3 3 3 3 3 3 3 3 4 5 6 6 6 6 6